Find Starlink 31070

NORAD ID: 58639 Int'l Des: 2023-203 Owner: SPXS Country: US Constellation: starlink operational
LEOCIRCULAR

現在のビュー

3D地球を読み込み中...

About Starlink 31070

Starlink 31070 (NORAD 58639) is a starlink constellation satellite (v2 mini) launched Dec 23, 2023 by SPXS of US. It operates in LEO, CIRCULAR orbit with a mass of 730.00 kg.

Starlink 31070について

説明を読み込み中...

次回通過

Passes for default location (London). Set your location on the main map for personalized predictions.

高度履歴

Loading altitude history...

軌道要素

1 58639U 23203X 26167.46687747 .00000849 00000-0 40381-4 0 9993
2 58639 43.0017 229.6363 0000976 268.1365 91.9375 15.27582412138667
Epoch: Jun 16, 2026 • Age: 6 hours

現在のステータス

高度 494.1 km
速度 7.62 km/s
衛星直下点 -39.08°S, 5.39°E
打ち上げ日 Dec 23, 2023
運用期間 2.4 years
タイプ internet

技術仕様

分類 Payload
質量 730.00 kg
乾燥質量 700.00 kg
総質量 730.00 kg
長さ 0.30 m
直径 4.10 m
スパン 29.00 m
形状 Box + pan
製造者 SPXS
バスタイプ Starlink V2M
フェーズステータス In Orbit
所有者/国 SPXS/US

Most Searched